Flag for India Weather past 2 weeks in Jaipur, Rajasthan, India

Now
84 °F

Fog.


Feels Like: 96 °F
Forecast: 80 / 92 °F
Wind: 3 mph from Northwest

Location: Jaipur / Sanganer

Current Time: Jul 26, 2014 at 7:41:02 AM

Latest Report: Jul 26, 2014 at 7:00 AM


Visibility: 2 mi

Pressure: 29.68 "Hg

Humidity: 84%

Dew point: 79 °F

Location of JaipurLocation

Historic Weather in Jaipur — Graph

°F

Jaipur temperature yesterday

Maximum temperature yesterday: 91 °F (at 4:00 PM)
Minimum temperature yesterday: 79 °F (at 12:00 AM)
Average temperature yesterday: 85 °F

Past Weeks' High & Low Weather Summary

 TemperatureHumidityPressure
High108 °F (Jul 11, 4:00 PM)100% (Jul 17, 3:00 AM)29.68 "Hg (Jul 17, 3:00 AM)
Low75 °F (Jul 21, 1:00 AM)19% (Jul 11, 6:00 PM)29.42 "Hg (Jul 15, 6:00 PM)
Average88 °F64%29.53 "Hg
* Reported Jul 11 6:00 AM — Jul 26 6:00 AM, Jaipur, Weather by CustomWeather, © 2014

Note: Actual official high and low records may vary slightly from our data, if they occured in-between our weather recording intervals... More about our weather records

Advertising

Jaipur weather history for previous 24 hours

 ConditionsComfort  
Time TempWeatherWind HumidityBarometerVisibility
6:00 AM
Jul 26
82 °FFog.2 mph89%29.65 "Hg2 mi
5:00 AM82 °FFog.3 mph84%29.65 "Hg2 mi
4:00 AM82 °FFog.No wind84%29.62 "Hg2 mi
3:00 AM82 °FFog.3 mph84%29.62 "Hg2 mi
2:00 AM82 °FPassing clouds.3 mph84%29.65 "Hg2 mi
1:00 AM84 °FPassing clouds.3 mph79%29.65 "Hg2 mi
12:00 AM84 °FPassing clouds.8 mph79%29.68 "Hg2 mi
11:00 PM
Jul 25
84 °FPassing clouds.6 mph74%29.65 "Hg2 mi
9:00 PM86 °FPassing clouds.10 mph70%29.62 "Hg2 mi
8:00 PM88 °FPassing clouds.8 mph62%29.62 "Hg2 mi
7:00 PM90 °FScattered clouds.8 mph59%29.59 "Hg2 mi
6:00 PM90 °FScattered clouds.8 mph59%29.56 "Hg2 mi
5:00 PM91 °FScattered clouds.12 mph56%29.56 "Hg2 mi
4:00 PM91 °FScattered clouds.7 mph52%29.56 "Hg2 mi
3:00 PM90 °FBroken clouds.8 mph59%29.59 "Hg2 mi
2:00 PM90 °FBroken clouds.7 mph59%29.62 "Hg2 mi
1:00 PM88 °FBroken clouds.7 mph62%29.62 "Hg2 mi
12:00 PM86 °FBroken clouds.8 mph66%29.62 "Hg2 mi
11:00 AM86 °FScattered clouds.8 mph66%29.65 "Hg2 mi
10:00 AM86 °FScattered clouds.9 mph66%29.65 "Hg2 mi
9:00 AM82 °FScattered clouds.10 mph74%29.62 "Hg2 mi
8:00 AM81 °FScattered clouds.9 mph79%29.62 "Hg2 mi
7:00 AM79 °FScattered clouds.8 mph84%29.59 "Hg2 mi
Weather by CustomWeather, © 2014

See weather overviewHow to use our weather pages